This is the latest recevied weather packets stored in our database for station/object KD1KE. If no packets are shown the sender has not sent any weather packets the latest 10 day(s).
| Time | Temp. | Humidity | Pressure | Rain* | Wind** | Luminosity | Snow |
|---|---|---|---|---|---|---|---|
| 1777994863 | 20.56° C | 56% | 1006.4 hPa | 0 mm | - | - | - |
| 1777994319 | 21.11° C | 56% | 1006.4 hPa | 0 mm | - | - | - |
| 1777994230 | 21.11° C | 56% | 1006.4 hPa | 0 mm | - | - | - |
| 1777993778 | 20.56° C | 56% | 1006.4 hPa | 0 mm | - | - | - |
| 1777993569 | 20.56° C | 56% | 1006.4 hPa | 0 mm | - | - | - |
| 1777993237 | 20° C | 56% | 1006.4 hPa | 0 mm | - | - | - |
| 1777992910 | 20° C | 56% | 1006.4 hPa | 0 mm | - | - | - |
| 1777992698 | 20° C | 57% | 1006.4 hPa | 0 mm | - | - | - |
| 1777992249 | 20° C | 56% | 1006.5 hPa | 0 mm | - | - | - |
| 1777992159 | 20° C | 55% | 1006.3 hPa | 0 mm | - | - | - |
| 1777991622 | 20° C | 55% | 1006.4 hPa | 0 mm | - | - | - |
| 1777991590 | 20° C | 55% | 1006.4 hPa | 0 mm | - | - | - |
| 1777990928 | 19.44° C | 58% | 1006.6 hPa | 0 mm | - | - | - |
| 1777990537 | 19.44° C | 57% | 1006.6 hPa | 0 mm | - | - | - |
| 1777989997 | 19.44° C | 57% | 1006.4 hPa | 0 mm | - | - | - |
| 1777989609 | 18.89° C | 58% | 1006.5 hPa | 0 mm | - | - | - |
| 1777989459 | 18.89° C | 59% | 1006.5 hPa | 0 mm | - | - | - |
| 1777988950 | 18.33° C | 59% | 1006.4 hPa | 0 mm | - | - | - |
| 1777988379 | 18.33° C | 60% | 1006.6 hPa | 0 mm | - | - | - |
| 1777988289 | 17.78° C | 61% | 1006.5 hPa | 0 mm | - | - | - |
| 1777987838 | 17.22° C | 62% | 1006.6 hPa | 0 mm | - | - | - |
| 1777987628 | 17.22° C | 62% | 1006.7 hPa | 0 mm | - | - | - |
| 1777987297 | 17.22° C | 62% | 1006.8 hPa | 0 mm | - | - | - |
| 1777986968 | 17.22° C | 62% | 1006.8 hPa | 0 mm | - | - | - |
| 1777986758 | 17.22° C | 62% | 1006.8 hPa | 0 mm | - | - | - |
* Rain latest hour (hover to see other rain measurements)
** Current wind speed in m/s (hover to see current wind gust speed)